Location: Newark
(45.6000°N, 12.8833°E)
Time: 08:04:45
(UTC+00:00)

Vanguard 3 - Pass Details

Date: 22 November 2019
Orbit: 508 x 3263 km, 33.3° (Epoch: 10 December)

Event Time Altitude Azimuth Distance (km) Brightness Sun altitude
Rises 17:31:28 0° 277° (W) 7,185 13.4 -20.6°
Reaches altitude 10° 17:37:19 10° 269° (W) 5,991 12.7 -21.6°
Maximum altitude 17:51:34 31° 217° (SW) 3,653 10.8 -24.1°
Drops below altitude 10° 18:01:32 10° 160° (SSE) 4,139 10.6 -25.8°
Enters shadow 18:04:39 - 150° (SSE) 4,744 10.8 -26.4°
